Time,TemperatureF,DewpointF,PressureIn,WindDirection,WindDirectionDegrees,WindSpeedMPH,WindSpeedGustMPH,Humidity,HourlyPrecipIn,Conditions,Clouds,dailyrainin,SoftwareType,DateUTC
2013-01-08 00:02:00,26.0,23.0,-100.00,SW,230,4.0,5.0,88,0.00,,,0.00,,2013-01-08 00:02:00,
2013-01-08 00:12:00,26.0,23.0,-100.00,SW,235,2.0,4.0,89,0.00,,,0.00,,2013-01-08 00:12:00,
2013-01-08 00:22:00,26.0,23.0,-100.00,WSW,240,2.0,2.0,90,0.00,,,0.00,,2013-01-08 00:22:00,
2013-01-08 00:32:00,25.0,23.0,-100.00,WSW,245,1.0,2.0,91,0.00,,,0.00,,2013-01-08 00:32:00,
2013-01-08 00:42:00,25.0,23.0,-100.00,NE,55,0.0,2.0,92,0.00,,,0.00,,2013-01-08 00:42:00,
2013-01-08 00:52:00,24.0,23.0,-100.00,ENE,75,1.0,4.0,92,0.00,,,0.00,,2013-01-08 00:52:00,
2013-01-08 01:02:00,25.0,23.0,-100.00,ENE,65,1.0,2.0,94,0.00,,,0.00,,2013-01-08 01:02:00,
2013-01-08 01:12:00,24.0,23.0,-100.00,East,90,1.0,3.0,94,0.00,,,0.00,,2013-01-08 01:12:00,
2013-01-08 01:22:00,20.0,18.0,-100.00,SSE,160,0.0,0.0,94,0.00,,,0.00,,2013-01-08 01:22:00,
2013-01-08 01:33:00,19.0,18.0,-100.00,ESE,120,0.0,1.0,95,0.00,,,0.00,,2013-01-08 01:33:00,
2013-01-08 01:42:00,17.0,16.0,-100.00,NW,320,0.0,1.0,95,0.00,,,0.00,,2013-01-08 01:42:00,
2013-01-08 01:52:00,18.0,18.0,-100.00,ESE,105,1.0,1.0,96,0.00,,,0.00,,2013-01-08 01:52:00,
2013-01-08 02:02:00,18.0,18.0,-100.00,SSE,155,0.0,1.0,96,0.00,,,0.00,,2013-01-08 02:02:00,
2013-01-08 02:12:00,17.0,16.0,-100.00,West,260,0.0,2.0,97,0.00,,,0.00,,2013-01-08 02:12:00,
2013-01-08 02:22:00,17.0,16.0,-100.00,SSE,150,1.0,1.0,97,0.00,,,0.00,,2013-01-08 02:22:00,
2013-01-08 02:32:00,18.0,18.0,-100.00,SW,215,1.0,2.0,97,0.00,,,0.00,,2013-01-08 02:32:00,
2013-01-08 02:42:00,18.0,18.0,-100.00,SSW,195,1.0,2.0,97,0.00,,,0.00,,2013-01-08 02:42:00,
2013-01-08 02:53:00,16.0,16.0,-100.00,West,265,0.0,1.0,98,0.00,,,0.00,,2013-01-08 02:53:00,
2013-01-08 03:12:00,17.0,16.0,-100.00,NE,45,2.0,3.0,98,0.00,,,0.00,,2013-01-08 03:12:00,
2013-01-08 03:22:00,15.0,14.0,-100.00,NNE,20,1.0,3.0,98,0.00,,,0.00,,2013-01-08 03:22:00,
2013-01-08 03:42:00,15.0,14.0,-100.00,NE,40,4.0,5.0,99,0.00,,,0.00,,2013-01-08 03:42:00,
2013-01-08 03:52:00,16.0,16.0,-100.00,ENE,65,2.0,4.0,99,0.00,,,0.00,,2013-01-08 03:52:00,
2013-01-08 04:12:00,15.0,14.0,-100.00,ENE,70,2.0,3.0,99,0.00,,,0.00,,2013-01-08 04:12:00,
2013-01-08 04:22:00,14.0,14.0,-100.00,NE,50,2.0,4.0,99,0.00,,,0.00,,2013-01-08 04:22:00,
2013-01-08 04:32:00,13.0,12.0,-100.00,East,80,2.0,4.0,99,0.00,,,0.00,,2013-01-08 04:32:00,
2013-01-08 04:42:00,15.0,14.0,-100.00,ESE,110,1.0,3.0,99,0.00,,,0.00,,2013-01-08 04:42:00,
2013-01-08 04:52:00,15.0,14.0,-100.00,ESE,115,4.0,6.0,99,0.00,,,0.00,,2013-01-08 04:52:00,
2013-01-08 05:33:00,11.0,10.0,-100.00,East,85,2.0,3.0,99,0.00,,,0.00,,2013-01-08 05:33:00,
2013-01-08 05:53:00,13.0,12.0,-100.00,SE,125,1.0,3.0,99,0.00,,,0.00,,2013-01-08 05:53:00,
2013-01-08 06:02:00,10.0,10.0,-100.00,NE,50,5.0,6.0,99,0.00,,,0.00,,2013-01-08 06:02:00,
2013-01-08 06:12:00,11.0,10.0,-100.00,NE,55,4.0,6.0,99,0.00,,,0.00,,2013-01-08 06:12:00,
2013-01-08 06:22:00,11.0,10.0,-100.00,NE,50,3.0,4.0,99,0.00,,,0.00,,2013-01-08 06:22:00,
2013-01-08 06:32:00,12.0,12.0,-100.00,NE,50,1.0,2.0,99,0.00,,,0.00,,2013-01-08 06:32:00,
2013-01-08 06:42:00,9.0,9.0,-100.00,NE,40,2.0,3.0,99,0.00,,,0.00,,2013-01-08 06:42:00,
2013-01-08 06:52:00,9.0,9.0,-100.00,NE,50,6.0,6.0,99,0.00,,,0.00,,2013-01-08 06:52:00,
2013-01-08 07:02:00,9.0,9.0,-100.00,NE,55,4.0,6.0,99,0.00,,,0.00,,2013-01-08 07:02:00,
2013-01-08 07:32:00,11.0,10.0,-100.00,ENE,65,5.0,7.0,99,0.00,,,0.00,,2013-01-08 07:32:00,
2013-01-08 07:42:00,11.0,10.0,-100.00,NE,50,4.0,4.0,99,0.00,,,0.00,,2013-01-08 07:42:00,
2013-01-08 07:52:00,11.0,10.0,-100.00,ENE,75,4.0,5.0,99,0.00,,,0.00,,2013-01-08 07:52:00,
2013-01-08 08:02:00,11.0,10.0,-100.00,ENE,65,5.0,6.0,99,0.00,,,0.00,,2013-01-08 08:02:00,
2013-01-08 08:12:00,11.0,10.0,-100.00,NE,55,4.0,6.0,99,0.00,,,0.00,,2013-01-08 08:12:00,
2013-01-08 08:32:00,9.0,9.0,-100.00,NE,50,4.0,4.0,99,0.00,,,0.00,,2013-01-08 08:32:00,
2013-01-08 08:42:00,9.0,9.0,-100.00,ENE,60,4.0,5.0,99,0.00,,,0.00,,2013-01-08 08:42:00,
2013-01-08 09:22:00,8.0,7.0,-100.00,NE,45,4.0,4.0,99,0.00,,,0.00,,2013-01-08 09:22:00,
2013-01-08 09:32:00,8.0,7.0,-100.00,NE,40,2.0,4.0,99,0.00,,,0.00,,2013-01-08 09:32:00,
2013-01-08 09:52:00,9.0,9.0,-100.00,ENE,65,2.0,4.0,99,0.00,,,0.00,,2013-01-08 09:52:00,
2013-01-08 10:12:00,9.0,9.0,-100.00,ENE,60,4.0,5.0,99,0.00,,,0.00,,2013-01-08 10:12:00,
2013-01-08 10:22:00,9.0,9.0,-100.00,ENE,60,3.0,5.0,99,0.00,,,0.00,,2013-01-08 10:22:00,
2013-01-08 10:32:00,9.0,9.0,-100.00,ENE,60,3.0,4.0,99,0.00,,,0.00,,2013-01-08 10:32:00,
2013-01-08 10:42:00,9.0,9.0,-100.00,NE,55,4.0,4.0,99,0.00,,,0.00,,2013-01-08 10:42:00,
2013-01-08 11:12:00,10.0,10.0,-100.00,NE,40,2.0,3.0,99,0.00,,,0.00,,2013-01-08 11:12:00,
2013-01-08 11:42:00,13.0,12.0,-100.00,ENE,75,2.0,2.0,99,0.00,,,0.00,,2013-01-08 11:42:00,
2013-01-08 11:53:00,11.0,10.0,-100.00,ESE,105,2.0,4.0,99,0.00,,,0.00,,2013-01-08 11:53:00,
2013-01-08 12:02:00,11.0,10.0,-100.00,North,10,2.0,3.0,99,0.00,,,0.00,,2013-01-08 12:02:00,
2013-01-08 12:12:00,12.0,12.0,-100.00,NNE,20,1.0,3.0,99,0.00,,,0.00,,2013-01-08 12:12:00,
2013-01-08 12:22:00,14.0,14.0,-100.00,NNE,30,1.0,2.0,99,0.00,,,0.00,,2013-01-08 12:22:00,
2013-01-08 12:32:00,14.0,14.0,-100.00,East,80,1.0,2.0,99,0.00,,,0.00,,2013-01-08 12:32:00,
2013-01-08 12:42:00,16.0,16.0,-100.00,East,100,2.0,2.0,99,0.00,,,0.00,,2013-01-08 12:42:00,
2013-01-08 12:53:00,15.0,14.0,-100.00,East,85,2.0,2.0,99,0.00,,,0.00,,2013-01-08 12:53:00,
2013-01-08 13:03:00,15.0,14.0,-100.00,East,95,2.0,3.0,99,0.00,,,0.00,,2013-01-08 13:03:00,
2013-01-08 13:12:00,14.0,14.0,-100.00,ENE,60,2.0,3.0,99,0.00,,,0.00,,2013-01-08 13:12:00,
2013-01-08 13:32:00,13.0,12.0,-100.00,NNE,15,2.0,6.0,99,0.00,,,0.00,,2013-01-08 13:32:00,
2013-01-08 13:42:00,11.0,10.0,-100.00,NE,45,4.0,6.0,99,0.00,,,0.00,,2013-01-08 13:42:00,
2013-01-08 13:52:00,11.0,10.0,-100.00,NE,35,4.0,6.0,99,0.00,,,0.00,,2013-01-08 13:52:00,
2013-01-08 14:23:00,14.0,14.0,-100.00,East,95,4.0,6.0,99,0.00,,,0.00,,2013-01-08 14:23:00,
2013-01-08 14:33:00,17.0,16.0,-100.00,ESE,115,4.0,6.0,99,0.00,,,0.00,,2013-01-08 14:33:00,
2013-01-08 14:42:00,14.0,14.0,-100.00,ENE,70,2.0,4.0,99,0.00,,,0.00,,2013-01-08 14:42:00,
2013-01-08 14:53:00,17.0,16.0,-100.00,ESE,120,4.0,6.0,99,0.00,,,0.00,,2013-01-08 14:53:00,
2013-01-08 15:02:00,18.0,18.0,-100.00,SE,125,6.0,8.0,99,0.00,,,0.00,,2013-01-08 15:02:00,
2013-01-08 15:42:00,20.0,19.0,-100.00,SSE,150,10.0,12.0,99,0.00,,,0.00,,2013-01-08 15:42:00,
2013-01-08 15:52:00,20.0,19.0,-100.00,West,265,6.0,10.0,99,0.00,,,0.00,,2013-01-08 15:52:00,
2013-01-08 16:03:00,21.0,21.0,-100.00,SSE,160,9.0,10.0,99,0.00,,,0.00,,2013-01-08 16:03:00,
2013-01-08 16:12:00,21.0,21.0,-100.00,SSE,150,9.0,11.0,99,0.00,,,0.00,,2013-01-08 16:12:00,
2013-01-08 16:22:00,21.0,21.0,-100.00,SSE,150,11.0,12.0,99,0.00,,,0.00,,2013-01-08 16:22:00,
2013-01-08 16:33:00,21.0,21.0,-100.00,SSE,160,12.0,14.0,99,0.00,,,0.00,,2013-01-08 16:33:00,
2013-01-08 16:42:00,21.0,21.0,-100.00,SSE,155,11.0,12.0,99,0.00,,,0.00,,2013-01-08 16:42:00,
2013-01-08 16:52:00,21.0,21.0,-100.00,SSE,155,12.0,14.0,99,0.00,,,0.00,,2013-01-08 16:52:00,
2013-01-08 17:03:00,21.0,21.0,-100.00,SSE,160,16.0,19.0,99,0.00,,,0.00,,2013-01-08 17:03:00,
2013-01-08 17:12:00,21.0,21.0,-100.00,SSE,160,14.0,19.0,99,0.00,,,0.00,,2013-01-08 17:12:00,
2013-01-08 17:33:00,23.0,23.0,-100.00,South,190,17.0,21.0,99,0.00,,,0.00,,2013-01-08 17:33:00,
2013-01-08 17:43:00,24.0,23.0,-100.00,South,185,17.0,21.0,99,0.00,,,0.00,,2013-01-08 17:43:00,
2013-01-08 17:53:00,24.0,23.0,-100.00,South,170,17.0,21.0,99,0.00,,,0.00,,2013-01-08 17:53:00,
2013-01-08 18:23:00,25.0,25.0,-100.00,South,185,9.0,14.0,99,0.00,,,0.00,,2013-01-08 18:23:00,
2013-01-08 18:33:00,26.0,25.0,-100.00,SSW,210,13.0,14.0,99,0.00,,,0.00,,2013-01-08 18:33:00,
2013-01-08 18:43:00,25.0,25.0,-100.00,SSW,195,11.0,14.0,99,0.00,,,0.00,,2013-01-08 18:43:00,
2013-01-08 18:53:00,25.0,25.0,-100.00,South,185,10.0,12.0,99,0.00,,,0.00,,2013-01-08 18:53:00,
2013-01-08 19:03:00,26.0,25.0,-100.00,SSW,195,9.0,13.0,99,0.00,,,0.00,,2013-01-08 19:03:00,
2013-01-08 19:12:00,27.0,27.0,-100.00,SSW,195,9.0,12.0,99,0.00,,,0.00,,2013-01-08 19:12:00,
2013-01-08 19:22:00,27.0,27.0,-100.00,SSW,210,9.0,11.0,99,0.00,,,0.00,,2013-01-08 19:22:00,
2013-01-08 19:32:00,27.0,27.0,-100.00,SSW,200,10.0,12.0,99,0.00,,,0.00,,2013-01-08 19:32:00,
2013-01-08 19:53:00,29.0,28.0,-100.00,SW,220,9.0,12.0,99,0.00,,,0.00,,2013-01-08 19:53:00,
2013-01-08 20:03:00,29.0,28.0,-100.00,SW,225,10.0,13.0,99,0.00,,,0.00,,2013-01-08 20:03:00,
2013-01-08 20:12:00,29.0,28.0,-100.00,WSW,240,11.0,13.0,98,0.00,,,0.00,,2013-01-08 20:12:00,
2013-01-08 20:22:00,29.0,28.0,-100.00,WSW,240,12.0,16.0,97,0.00,,,0.00,,2013-01-08 20:22:00,
2013-01-08 20:33:00,29.0,28.0,-100.00,WSW,245,11.0,15.0,96,0.00,,,0.00,,2013-01-08 20:33:00,
2013-01-08 20:43:00,29.0,28.0,-100.00,WSW,240,9.0,13.0,96,0.00,,,0.00,,2013-01-08 20:43:00,
2013-01-08 20:53:00,30.0,28.0,-100.00,WSW,245,11.0,12.0,96,0.00,,,0.00,,2013-01-08 20:53:00,
2013-01-08 21:03:00,30.0,28.0,-100.00,WSW,245,9.0,12.0,95,0.00,,,0.00,,2013-01-08 21:03:00,
2013-01-08 21:12:00,30.0,28.0,-100.00,WSW,255,7.0,12.0,95,0.00,,,0.00,,2013-01-08 21:12:00,
2013-01-08 21:22:00,30.0,28.0,-100.00,WSW,255,11.0,12.0,95,0.00,,,0.00,,2013-01-08 21:22:00,
2013-01-08 21:33:00,30.0,28.0,-100.00,WSW,245,9.0,12.0,95,0.00,,,0.00,,2013-01-08 21:33:00,
2013-01-08 21:43:00,30.0,28.0,-100.00,WSW,255,9.0,12.0,95,0.00,,,0.00,,2013-01-08 21:43:00,
2013-01-08 21:53:00,30.0,28.0,-100.00,WSW,250,8.0,11.0,95,0.00,,,0.00,,2013-01-08 21:53:00,
2013-01-08 22:03:00,29.0,28.0,-100.00,WSW,245,10.0,11.0,95,0.00,,,0.00,,2013-01-08 22:03:00,
2013-01-08 22:12:00,29.0,28.0,-100.00,WSW,245,7.0,12.0,95,0.00,,,0.00,,2013-01-08 22:12:00,
2013-01-08 22:22:00,29.0,28.0,-100.00,WSW,240,6.0,9.0,95,0.00,,,0.00,,2013-01-08 22:22:00,
2013-01-08 22:32:00,30.0,28.0,-100.00,SW,225,5.0,7.0,94,0.00,,,0.00,,2013-01-08 22:32:00,
2013-01-08 22:42:00,29.0,28.0,-100.00,SW,230,6.0,7.0,94,0.00,,,0.00,,2013-01-08 22:42:00,
2013-01-08 22:52:00,27.0,27.0,-100.00,SW,220,7.0,9.0,93,0.00,,,0.00,,2013-01-08 22:52:00,
2013-01-08 23:02:00,27.0,25.0,-100.00,SW,235,11.0,12.0,93,0.00,,,0.00,,2013-01-08 23:02:00,
2013-01-08 23:12:00,27.0,27.0,-100.00,WSW,245,14.0,17.0,93,0.00,,,0.00,,2013-01-08 23:12:00,
2013-01-08 23:22:00,27.0,25.0,-100.00,WSW,245,14.0,16.0,94,0.00,,,0.00,,2013-01-08 23:22:00,
2013-01-08 23:32:00,28.0,27.0,-100.00,WSW,250,17.0,20.0,95,0.00,,,0.00,,2013-01-08 23:32:00,
2013-01-08 23:43:00,27.0,27.0,-100.00,WSW,255,15.0,17.0,95,0.00,,,0.00,,2013-01-08 23:43:00,
2013-01-08 23:52:00,28.0,27.0,-100.00,West,260,14.0,17.0,96,0.00,,,0.00,,2013-01-08 23:52:00,